SCP
0 0 0 0 0 0 0 0 0 0 0 0 0 0 0 0 1 1 0 0 0 0 0 0 0 0 1 0 0 0 0 0 0 0 0 0 0 0 0 0 0 0 0
0 0 0 0 0 0 0 0 0 0 0 0 0 0 0 0 0 1 0 0 0 0 0 0 0 0 1 0 0 0 0 0 0 0 0 0 0 0 0 0 0 0 0
0 0 0 0 0 0 0 0 0 0 0 0 0 0 0 0 0 0 0 0 0 0 0 0 0 0 0 0 0 0 0 0 0 0 0 0 0 0 0 0 0 0 0
0 0 0 0 0 0 0 0 0 0 0 0 0 0 0 0 0 0 0 0 0 0 0 0 0 0 0 0 0 0 0 0 0 0 0 0 0 0 0 0 0 0 0
0 0 0 0 0 0 0 0 0 0 0 0 0 0 0 0 0 0 0 0 0 0 0 0 0 0 0 0 0 0 0 0 0 0 0 0 0 0 0 0 0 0 0
0 0 0 0 0 0 0 0 0 0 0 0 0 0 0 0 0 0 0 0 0 0 0 0 0 0 0 0 0 0 0 0 0 0 0 0 0 0 0 0 0 0 0
0 0 0 0 0 0 0 0 0 0 0 0 0 0 0 0 0 0 0 0 0 0 0 0 0 0 0 0 0 0 0 0 0 0 0 0 0 0 0 0 0 0 0
0 0 0 0 0 0 0 0 0 0 0 0 0 0 0 0 0 0 0 0 0 0 0 0 0 0 0 0 0 0 0 0 0 0 0 0 0 0 0 0 0 0 0
0 0 0 0 0 0 0 0 0 0 0 0 0 0 0 0 0 0 0 0 0 0 0 0 0 0 0 0 0 0 0 0 0 0 0 0 0 0 0 0 0 0 0
0 0 0 0 0 0 0 0 0 0 0 0 0 0 0 0 0 0 0 0 0 0 0 0 0 0 0 0 0 0 0 0 0 0 0 0 0 0 0 0 0 0 0
0 0 0 0 0 0 0 0 0 0 0 0 0 0 0 0 0 0 0 0 0 0 0 0 0 0 0 0 0 0 0 0 0 0 0 0 0 0 0 0 0 0 0
0 0 0 0 0 0 0 0 0 0 0 0 0 0 0 0 0 0 0 0 0 0 0 0 0 0 0 0 0 0 0 0 0 0 0 0 0 0 0 0 0 0 0
0 0 0 0 0 0 0 0 0 0 0 0 0 0 0 0 0 0 0 0 0 0 0 0 0 0 0 0 0 0 0 0 0 0 0 0 0 0 0 0 0 0 0
0 0 0 0 0 0 0 0 0 0 0 0 0 0 0 0 0 0 0 0 0 0 0 0 0 0 0 0 0 0 0 0 0 0 0 0 0 0 0 0 0 0 0
0 0 0 0 0 0 0 0 0 0 0 0 0 0 0 0 0 0 0 0 0 0 0 0 0 0 0 0 0 0 0 0 0 0 0 0 0 0 0 0 0 0 0
0 0 0 0 0 0 0 0 0 0 0 0 0 0 0 0 0 0 0 0 0 0 0 0 0 0 0 0 0 0 0 0 0 0 0 0 0 0 0 0 0 0 0
0 0 0 0 0 0 0 0 0 0 0 0 0 0 0 0 0 0 0 0 0 0 0 0 0 0 0 0 0 0 0 0 0 0 0 0 0 0 0 0 0 0 0
0 0 0 0 0 0 0 0 0 0 0 0 0 0 0 0 0 0 0 0 0 0 0 0 0 0 0 0 0 0 0 0 0 0 0 0 0 0 0 0 0 0 0
0 0 0 0 0 0 0 0 0 0 0 0 0 0 0 0 0 0 0 0 0 0 0 0 0 0 0 0 0 0 0 0 0 0 0 0 0 0 0 0 0 0 0
0 0 0 0 0 0 0 0 0 0 0 0 0 0 0 0 0 0 0 0 0 0 0 0 0 0 0 0 0 0 0 0 0 0 0 0 0 0 0 0 0 0 0
0 0 0 0 0 0 0 0 0 0 0 0 0 0 0 0 0 0 0 0 0 0 0 0 0 0 0 0 0 0 0 0 0 0 0 0 0 0 0 0 0 0 0
0 0 0 0 0 0 0 0 0 0 0 0 0 0 0 0 0 0 0 0 0 0 0 0 0 0 0 0 0 0 0 0 0 0 0 0 0 0 0 0 0 0 0
0 0 0 0 0 0 0 0 0 0 0 0 0 0 0 0 0 0 0 0 0 0 0 0 0 0 0 0 0 0 0 0 0 0 0 0 0 0 0 0 0 0 0
0 0 0 0 0 0 0 0 0 0 0 0 0 0 0 0 0 0 0 0 0 0 0 0 0 0 0 0 0 0 0 0 0 0 0 0 0 0 0 0 0 0 0
0 0 0 0 0 0 0 0 0 0 0 0 0 0 0 0 0 0 0 0 0 0 0 0 0 0 0 0 0 0 0 0 0 0 0 0 0 0 0 0 0 0 0
0 0 0 0 0 0 0 0 0 0 0 0 0 0 0 0 0 0 0 0 0 0 0 0 0 0 0 0 0 0 0 0 0 0 0 0 0 0 0 0 0 0 0
Wind_Speed
2 2 2 1 1 1 0 0 0 0 0 1 1 1 1 1 1 1 1 1 1 0 1 2 2 1 1 1 1 1 2 2 3 2 1 1 1 2 2 2 2 2 2
2 2 2 2 1 1 1 0 0 0 1 1 1 1 1 1 1 1 1 1 1 1 1 1 1 1 1 1 1 1 1 2 2 3 1 1 2 2 2 1 2 2 2
2 2 2 2 2 1 1 1 1 1 1 1 1 1 1 1 1 1 1 1 1 2 2 2 2 2 1 1 2 2 1 1 1 2 2 1 1 1 1 1 2 1 2
2 2 2 2 2 2 1 1 1 1 1 1 1 1 1 0 1 1 1 1 1 1 1 1 2 2 3 3 2 2 1 1 1 1 2 1 1 1 1 1 2 1 2
3 3 3 2 2 2 2 1 1 1 1 1 1 0 0 1 1 1 2 2 1 1 1 1 1 1 2 2 2 2 2 2 1 1 1 1 2 1 2 2 3 2 3
3 3 2 2 2 2 2 2 2 1 1 1 1 0 1 1 1 2 1 1 1 1 1 1 1 1 2 2 3 3 2 3 2 2 2 3 3 3 2 2 2 3 3
3 3 2 3 2 2 2 2 2 1 1 0 0 1 1 1 2 2 1 1 1 1 1 1 1 1 1 1 2 3 3 5 5 3 3 3 3 3 2 3 3 3 4
3 3 3 3 3 2 2 2 1 1 1 1 1 1 1 1 2 1 1 1 1 1 1 1 2 2 2 2 2 2 2 2 3 2 3 4 3 3 3 3 3 4 4
3 3 4 4 3 3 3 2 2 1 1 1 1 1 1 2 3 2 2 0 1 1 1 1 2 2 4 3 1 1 1 2 3 4 4 4 5 5 3 1 2 2 4
4 3 3 4 4 4 4 2 2 2 2 1 1 1 2 2 3 3 2 1 1 1 1 1 3 3 4 3 1 2 2 2 2 2 3 3 2 3 4 2 3 3 3
3 2 3 3 4 3 3 2 2 2 1 1 1 2 2 3 3 4 4 1 1 2 1 1 2 5 5 5 3 2 3 2 1 1 2 2 2 2 2 2 2 3 3
2 3 3 3 3 3 3 2 2 2 2 2 2 2 2 2 3 4 5 4 3 2 2 2 3 5 5 5 3 3 4 2 0 1 2 2 2 2 2 3 3 3 4
3 3 3 2 2 3 3 3 2 2 2 2 2 2 2 1 2 5 5 5 5 3 2 4 4 4 4 3 4 4 2 0 1 2 2 3 2 3 3 2 3 3 3
3 3 3 3 2 2 2 3 3 3 3 2 2 2 2 2 2 2 2 2 4 3 2 3 4 3 2 2 3 2 1 1 2 2 2 2 2 2 2 2 2 3 3
3 3 3 3 3 3 3 3 4 4 4 4 3 3 3 3 4 5 3 2 2 2 1 0 0 0 1 1 1 1 1 2 2 2 2 2 3 3 3 2 2 2 3
3 3 3 2 3 3 2 2 4 5 6 7 6 5 4 5 5 6 6 5 4 3 2 1 2 2 2 2 2 2 2 2 2 2 3 3 3 3 3 3 3 3 4
4 3 2 3 3 3 3 3 2 2 4 5 5 5 5 5 5 5 5 4 4 3 2 2 2 3 3 2 3 3 3 3 3 3 3 3 3 3 3 3 3 3 4
3 3 3 3 3 3 3 3 3 2 2 2 3 5 5 5 5 5 4 2 2 2 2 2 3 3 3 3 3 3 3 3 3 3 3 3 3 3 3 4 3 4 4
3 2 2 2 2 2 2 2 2 2 2 2 1 2 4 4 4 4 3 1 2 2 2 3 3 3 3 3 3 3 4 3 3 3 3 4 3 3 4 4 4 6 5
2 3 3 2 2 2 2 2 2 2 2 2 2 2 1 1 1 2 1 2 2 3 3 3 3 3 3 3 3 3 3 3 4 3 4 3 3 3 4 5 4 4 4
2 2 3 2 2 2 2 2 2 2 2 2 3 3 3 2 2 2 2 2 2 3 3 3 3 3 3 3 3 4 4 4 4 4 3 3 3 4 4 4 4 4 4
2 2 2 2 2 2 2 2 2 2 2 3 2 3 4 2 2 2 2 3 3 3 3 3 3 3 3 3 3 3 4 4 4 4 4 3 3 4 4 4 4 4 4
2 2 2 2 2 2 2 1 2 2 2 2 2 2 2 2 2 2 3 3 2 2 2 3 3 3 3 3 3 3 4 4 4 4 4 4 4 4 4 5 5 4 4
2 2 2 2 1 1 1 1 1 2 2 2 2 2 2 2 2 3 3 2 2 2 2 3 3 4 5 4 3 3 4 4 4 4 5 5 5 5 4 4 5 5 5
2 2 2 2 2 1 1 1 1 2 2 2 2 2 2 2 2 2 2 2 3 3 3 3 3 4 5 6 5 5 7 8 8 5 5 5 6 6 5 5 5 4 4
2 2 2 1 1 1 1 1 1 2 2 2 2 2 2 2 2 2 2 2 2 3 3 3 4 5 5 5 6 8 9 9 9 9 6 4 5 5 5 4 5 5 4
Wind_Direction
172 173 169 178 171 142 146 253 260 205 107 144 156 149 134 120 124 138 149 157 156 154 162 168 176 172 179 193 189 195 195 189 224 259 253 279 256 269 304 295 278 263 284
182 171 174 167 156 153 167 196 123 104 98 125 122 113 126 133 135 151 173 169 170 182 188 163 169 168 173 192 190 204 211 215 211 248 266 266 265 260 263 276 298 304 280
164 160 162 161 161 176 171 151 136 123 100 80 102 113 114 143 146 156 175 184 189 205 197 190 193 179 199 215 210 215 224 245 218 230 262 252 260 264 278 290 284 288 297
160 164 176 181 177 182 168 155 154 148 138 134 133 141 140 152 167 173 172 177 185 203 204 196 202 202 211 214 218 215 207 215 219 232 258 260 255 261 257 280 299 291 288
170 183 196 183 165 156 150 150 138 136 144 151 136 106 143 179 196 198 194 189 185 180 192 216 229 247 248 230 230 214 196 208 220 233 258 274 276 272 268 272 289 304 284
182 200 192 165 162 164 164 158 145 134 115 115 130 196 227 234 233 240 215 169 170 182 206 243 274 289 292 300 292 274 240 224 226 227 251 259 262 267 274 281 292 303 294
192 197 185 175 175 176 169 158 157 152 132 143 208 207 243 261 261 247 250 167 160 184 210 239 276 281 306 273 279 290 283 276 265 244 237 251 253 255 261 272 272 271 272
193 195 189 181 185 177 169 178 181 166 170 200 230 239 252 283 286 282 289 132 148 205 228 227 238 260 258 242 234 242 254 265 273 257 222 232 240 239 237 249 263 281 278
202 204 197 186 185 182 190 197 189 177 198 215 206 208 231 272 282 284 298 153 185 240 248 240 241 246 267 270 243 233 266 277 303 309 304 302 298 288 282 251 263 280 288
214 209 198 187 188 194 199 199 193 190 207 209 227 222 227 251 271 274 276 198 218 247 252 255 265 269 273 279 227 213 245 255 264 305 318 316 313 298 299 247 231 251 274
207 197 197 196 196 195 195 193 186 192 195 213 242 251 240 245 266 272 271 239 222 236 241 248 260 280 284 287 285 234 257 266 222 258 276 280 286 277 278 267 250 239 249
190 195 201 200 201 191 181 192 189 183 193 217 234 259 249 249 257 265 269 268 260 239 243 242 256 275 282 284 288 285 293 314 214 238 261 269 275 279 278 277 274 264 254
190 203 204 202 204 194 186 190 190 188 199 217 223 242 260 254 254 264 268 271 269 259 244 254 264 273 281 285 290 290 296 236 234 254 261 268 268 267 273 280 285 282 279
196 207 205 196 201 197 196 194 194 197 205 215 222 234 252 264 260 260 257 265 269 272 271 266 273 282 288 290 292 298 290 245 242 251 260 265 271 267 266 268 278 290 294
198 204 206 204 202 200 203 206 207 212 207 208 217 219 225 245 255 259 254 241 227 228 216 206 247 270 260 270 269 262 254 261 266 259 260 268 272 273 274 270 265 268 269
196 205 205 203 203 198 199 225 232 226 233 233 234 233 238 250 267 270 267 263 258 244 220 213 230 232 235 245 253 258 251 251 249 251 255 260 264 268 275 276 273 266 269
201 204 202 203 199 193 194 200 226 243 242 242 246 251 253 257 262 270 269 266 255 248 237 224 232 238 239 240 243 248 252 250 249 248 251 255 262 266 269 271 272 272 271
207 210 202 197 191 192 197 202 205 209 230 255 255 258 263 262 262 263 263 265 257 248 237 234 239 241 239 241 245 250 254 254 250 250 250 250 249 257 262 263 265 268 272
195 192 185 180 182 186 189 193 200 208 220 240 261 264 263 266 264 260 251 228 236 247 248 246 244 244 244 245 246 248 247 248 249 248 250 251 249 252 258 260 264 275 277
191 190 177 169 169 175 181 188 196 204 214 226 238 246 253 246 243 258 245 230 235 246 250 252 252 250 248 245 247 249 250 248 247 246 249 250 252 250 255 261 262 264 263
173 180 181 173 175 181 185 194 201 204 214 230 244 246 238 217 226 236 242 242 242 246 252 255 255 257 254 250 248 248 251 253 246 245 247 250 252 256 255 257 261 260 262
165 167 169 173 175 183 189 194 200 208 218 233 251 260 259 242 230 237 244 248 248 247 248 251 254 252 250 249 249 249 252 255 252 246 246 248 250 252 254 256 258 261 260
161 164 168 172 175 195 201 198 203 212 224 233 238 243 241 233 236 241 247 251 251 252 249 246 253 257 255 253 247 243 247 251 251 247 247 249 250 251 250 253 253 255 258
163 164 166 168 174 184 193 205 211 218 226 235 239 241 242 241 246 252 252 253 253 255 253 249 249 253 258 261 258 252 250 254 253 246 240 243 248 251 251 252 253 252 253
156 160 165 171 180 191 199 210 218 225 232 237 239 244 250 252 254 258 259 260 262 261 262 257 254 253 255 258 260 260 265 268 268 259 240 237 240 243 245 248 249 251 253
151 158 163 166 178 188 196 210 226 234 240 246 245 245 248 255 259 263 264 263 266 268 269 265 260 259 261 263 264 267 272 273 273 272 259 242 237 241 242 245 244 246 248